Home > Weather > Port Elizabeth > Past weeks

Flag for South Africa Past Weather in Port Elizabeth, South Africa — Yesterday and Last 2 Weeks

Now
84 °F

Passing clouds.


Feels Like: 82 °F
Forecast: 50 / 79 °F
Wind: 6 mph from Northeast

Location: Port Elizabeth Airport

Current Time: May 29, 2016 at 3:39:00 PM

Latest Report: May 29, 2016 at 1:00 PM


Visibility: N/A

Pressure: 30.04 "Hg

Humidity: 29%

Dew Point: 48 °F

Location of Port ElizabethLocation

Past Weather in Port Elizabeth — Graph

°F

Port Elizabeth Temperature Yesterday

Maximum temperature yesterday: 75 °F (at 12:53 PM)
Minimum temperature yesterday: 48 °F (at 7:00 AM)
Average temperature yesterday: 58 °F

High & Low Weather Summary for the Past Weeks

 TemperatureHumidityPressure
High90 °F (May 18, 2:00 PM)100% (May 15, 12:00 AM)30.51 "Hg (May 15, 12:00 AM)
Low45 °F (May 26, 6:00 AM)26% (May 18, 2:00 PM)29.89 "Hg (May 18, 3:00 PM)
Average61 °F77%30.19 "Hg
* Reported May 14 1:00 PM — May 29 1:00 PM, Port Elizabeth, Weather by CustomWeather, © 2016

Note: Actual official high and low records may vary slightly from our data, if they occured in-between our weather recording intervals... More about our weather records

Advertising

Port Elizabeth Weather History for the Previous 24 Hours

Scroll right to see more
 ConditionsComfort  
Time TempWeatherWind HumidityBarometerVisibility
1:00 PM
Sun, May 29
84 °FPassing clouds.6 mph29%30.04 "HgN/A
12:00 PM82 °FPassing clouds.6 mph30%30.07 "HgN/A
10:00 AM75 °FSunny.2 mph39%30.09 "Hg10 mi
9:00 AM64 °FSunny.2 mph60%30.09 "Hg10 mi
8:45 AM63 °FSunny.1 mph64%30.09 "Hg10 mi
8:00 AM50 °FPassing clouds.3 mph76%30.09 "HgN/A
7:00 AM52 °FSunny.5 mph67%30.09 "Hg10 mi
6:00 AM55 °FClear.3 mph63%30.07 "Hg10 mi
5:00 AM48 °FClear.3 mph76%30.07 "Hg10 mi
4:00 AM54 °FPassing clouds.3 mph67%30.07 "HgN/A
3:00 AM50 °FClear.3 mph76%30.07 "Hg10 mi
2:00 AM50 °FClear.3 mph76%30.09 "Hg10 mi
1:00 AM55 °FClear.3 mph67%30.09 "Hg10 mi
12:00 AM52 °FClear.3 mph77%30.09 "Hg10 mi
8:00 PM
Sat, May 28
54 °FClear.6 mph82%30.12 "Hg4 mi
7:46 PM54 °FClear.6 mph82%30.12 "Hg4 mi
7:00 PM57 °FClear.5 mph77%30.12 "Hg2 mi
6:00 PM61 °FClear.6 mph77%30.12 "Hg2 mi
5:00 PM66 °FClear.5 mph68%30.12 "Hg10 mi
4:00 PM75 °FPassing clouds.6 mph54%30.09 "HgN/A
Weather by CustomWeather, © 2016

See weather overviewHow to use our weather pages